TimeCDT,TemperatureF,Dew PointF,Humidity,Sea Level PressureIn,VisibilityMPH,Wind Direction,Wind SpeedMPH,Gust SpeedMPH,PrecipitationIn,Events,Conditions,WindDirDegrees,DateUTC
12:53 AM,73.0,69.1,87,30.01,10.0,East,4.6,-,N/A,,Mostly Cloudy,100,2013-09-29 05:53:00
1:53 AM,73.0,69.1,87,30.01,10.0,Calm,Calm,-,N/A,,Partly Cloudy,0,2013-09-29 06:53:00
2:53 AM,72.0,69.1,91,29.98,8.0,SE,5.8,-,N/A,,Mostly Cloudy,140,2013-09-29 07:53:00
3:53 AM,72.0,69.1,91,29.97,8.0,SE,8.1,-,N/A,,Clear,140,2013-09-29 08:53:00
4:53 AM,71.1,69.1,93,29.97,8.0,Calm,Calm,-,N/A,,Partly Cloudy,0,2013-09-29 09:53:00
5:53 AM,72.0,69.1,91,29.99,9.0,ESE,3.5,-,N/A,,Mostly Cloudy,110,2013-09-29 10:53:00
6:53 AM,73.0,69.1,87,30.01,10.0,SE,5.8,-,N/A,,Overcast,130,2013-09-29 11:53:00
7:53 AM,73.0,70.0,90,30.01,4.0,Calm,Calm,-,0.03,Rain,Light Rain,0,2013-09-29 12:53:00
8:19 AM,71.6,69.8,94,30.01,1.8,Calm,Calm,-,0.05,Rain,Heavy Rain,0,2013-09-29 13:19:00
8:38 AM,71.6,69.8,94,30.01,3.0,ESE,4.6,-,0.11,Rain,Light Rain,110,2013-09-29 13:38:00
8:53 AM,72.0,71.1,97,30.02,5.0,ESE,4.6,-,0.12,Rain,Light Rain,110,2013-09-29 13:53:00
9:53 AM,73.0,71.1,93,30.03,5.0,SE,6.9,-,0.06,Rain,Light Rain,140,2013-09-29 14:53:00
10:53 AM,71.1,69.1,93,30.03,3.0,ESE,4.6,-,0.04,Rain,Light Rain,110,2013-09-29 15:53:00
11:53 AM,72.0,70.0,93,30.03,3.0,ESE,3.5,-,0.05,Rain,Light Rain,120,2013-09-29 16:53:00
12:44 PM,73.4,71.6,94,30.01,5.0,Calm,Calm,-,0.00,Rain,Light Rain,0,2013-09-29 17:44:00
12:53 PM,73.9,72.0,93,30.02,5.0,Calm,Calm,-,0.00,Rain,Light Rain,0,2013-09-29 17:53:00
1:05 PM,73.4,71.6,94,30.00,5.0,Calm,Calm,-,0.00,Rain,Light Rain,0,2013-09-29 18:05:00
1:22 PM,73.4,71.6,94,29.99,6.0,SSE,3.5,-,0.01,Rain,Light Rain,150,2013-09-29 18:22:00
1:53 PM,73.9,71.1,91,29.99,10.0,South,3.5,-,0.01,Rain,Light Rain,180,2013-09-29 18:53:00
2:53 PM,73.0,71.1,93,29.96,4.0,ESE,6.9,-,0.05,Rain,Light Rain,120,2013-09-29 19:53:00
3:08 PM,73.4,71.6,94,29.94,9.0,East,8.1,-,0.00,,Overcast,100,2013-09-29 20:08:00
3:53 PM,73.9,71.1,91,29.95,9.0,SE,3.5,-,0.00,,Overcast,140,2013-09-29 20:53:00
4:53 PM,73.0,72.0,96,29.95,6.0,Calm,Calm,-,0.01,Rain,Light Rain,0,2013-09-29 21:53:00
5:11 PM,73.4,71.6,94,29.94,4.0,SSE,4.6,-,0.01,Rain,Light Rain,160,2013-09-29 22:11:00
5:53 PM,73.0,72.0,96,29.93,5.0,SE,9.2,-,0.02,Rain,Light Rain,130,2013-09-29 22:53:00
6:32 PM,73.4,71.6,94,29.92,5.0,SSE,9.2,-,0.01,Rain,Light Rain,150,2013-09-29 23:32:00
6:53 PM,73.0,72.0,96,29.93,6.0,SE,10.4,-,0.02,Rain,Light Rain,140,2013-09-29 23:53:00
7:53 PM,71.1,70.0,96,29.92,10.0,SSE,9.2,-,0.01,Rain,Light Rain,150,2013-09-30 00:53:00
8:36 PM,71.6,69.8,94,29.91,8.0,SSE,5.8,-,0.00,,Partly Cloudy,160,2013-09-30 01:36:00
8:53 PM,71.1,71.1,100,29.93,8.0,SSE,3.5,-,0.00,,Scattered Clouds,160,2013-09-30 01:53:00
9:21 PM,71.6,71.6,100,29.92,8.0,Calm,Calm,-,0.01,,Mostly Cloudy,0,2013-09-30 02:21:00
9:39 PM,71.6,71.6,100,29.92,7.0,SSE,3.5,-,0.01,,Scattered Clouds,150,2013-09-30 02:39:00
9:53 PM,71.1,70.0,96,29.94,7.0,SSE,3.5,-,0.01,,Scattered Clouds,150,2013-09-30 02:53:00
10:53 PM,70.0,69.1,97,29.94,5.0,Calm,Calm,-,N/A,,Scattered Clouds,0,2013-09-30 03:53:00
11:53 PM,70.0,70.0,100,29.94,5.0,SE,3.5,-,N/A,,Overcast,140,2013-09-30 04:53:00